{"data":{"norad_id":82432,"intl_designator":"","name":"UNKNOWN","alt_names":[],"object_type":"UNKNOWN","status":"UNKNOWN","operator":null,"country":null,"launch_date":null,"launch_site_code":null,"launch_vehicle":null,"mission":null,"orbit_class":"UNKNOWN","rcs_meters":null,"size_class":null,"mass_kg":null,"dimensions":null,"purposes":[],"wikipedia_slug":null,"has_3d_model":false,"image_url":null,"decayed_at":null,"tle_current":{"epoch":"2026-09-18T11:17:40.269408Z","epoch_age_seconds":190097,"freshness":"STALE","line1":"1 82432U          26261.47060497  .00000844  00000+0  18071-3 0  9998","line2":"2 82432  74.0065 166.5984 0056500 261.8318  97.6436 14.59463781523707","mean_motion":14.59463781,"eccentricity":0.00565,"inclination_deg":74.0065,"raan_deg":166.5984,"arg_perigee_deg":261.8318,"mean_anomaly_deg":97.6436,"bstar":0.00018071,"rev_number":52370,"period_min":98.66637451005,"perigee_km":654.94322863305,"apogee_km":734.86861364191,"semimajor_km":7073.0429211375,"source":"CELESTRAK","updated_at":"2026-09-20T09:00:32.434150Z"}}}